📊 Raw Sensor Data
Showing records 39776 to 39800 of 84,951 total
| ID | Distance (ft) | Battery V | Battery A | Int Temp (°F) | Int Humid (%) | Ext Temp (°F) | Solar V | RSSI | SNR | Time Stamp |
|---|---|---|---|---|---|---|---|---|---|---|
| 45188 | 14.9 | 3.91 | -5 | 71 | 54 | 70 | 0.00 | -73 | 7 | 07/02/2025 09:00 PM |
| 45187 | 15.0 | 3.86 | -5 | 74 | 56 | 71 | 0.60 | -73 | 8 | 07/02/2025 08:45 PM |
| 45186 | 15.0 | 3.85 | -10 | 78 | 56 | 74 | 3.80 | -77 | 8 | 07/02/2025 08:30 PM |
| 45185 | 15.0 | 3.87 | 0 | 84 | 54 | 78 | 4.50 | -72 | 7 | 07/02/2025 08:15 PM |
| 45184 | 15.0 | 3.93 | 0 | 87 | 54 | 82 | 4.50 | -72 | 8 | 07/02/2025 08:00 PM |
| 45183 | 15.0 | 3.96 | 6 | 90 | 53 | 83 | 4.50 | -76 | 8 | 07/02/2025 07:45 PM |
| 45182 | 15.0 | 3.80 | 12 | 95 | 53 | 87 | 4.60 | -74 | 8 | 07/02/2025 07:15 PM |
| 45181 | 15.1 | 3.91 | 0 | 97 | 53 | 89 | 4.50 | -76 | 7 | 07/02/2025 07:00 PM |
| 45180 | 15.1 | 3.88 | 0 | 100 | 52 | 91 | 5.10 | -74 | 8 | 07/02/2025 06:45 PM |
| 45179 | 15.1 | 3.88 | 0 | 101 | 51 | 93 | 5.10 | -74 | 8 | 07/02/2025 06:30 PM |
| 45178 | 15.1 | 3.88 | 0 | 103 | 50 | 96 | 5.10 | -73 | 8 | 07/02/2025 06:15 PM |
| 45177 | 15.1 | 3.88 | 0 | 103 | 49 | 95 | 5.10 | -74 | 8 | 07/02/2025 06:00 PM |
| 45176 | 15.1 | 3.88 | 0 | 103 | 48 | 97 | 5.10 | -75 | 8 | 07/02/2025 05:45 PM |
| 45175 | 15.1 | 3.97 | 0 | 103 | 48 | 97 | 5.10 | -75 | 8 | 07/02/2025 05:30 PM |
| 45174 | 15.1 | 3.88 | 0 | 103 | 48 | 94 | 5.10 | -74 | 7 | 07/02/2025 05:15 PM |
| 45173 | 15.1 | 3.88 | 0 | 104 | 47 | 94 | 5.10 | -76 | 8 | 07/02/2025 05:00 PM |
| 45172 | 15.1 | 3.88 | 0 | 105 | 46 | 96 | 5.10 | -74 | 8 | 07/02/2025 04:45 PM |
| 45171 | 15.0 | 3.89 | 0 | 104 | 47 | 95 | 5.10 | -72 | 8 | 07/02/2025 04:30 PM |
| 45170 | 15.0 | 4.02 | 0 | 104 | 46 | 95 | 5.10 | -74 | 8 | 07/02/2025 04:15 PM |
| 45169 | 15.1 | 4.10 | 0 | 105 | 45 | 94 | 5.10 | -74 | 8 | 07/02/2025 04:00 PM |
| 45168 | 15.0 | 3.88 | 0 | 105 | 45 | 97 | 5.10 | -73 | 8 | 07/02/2025 03:45 PM |
| 45167 | 15.0 | 3.88 | 0 | 104 | 44 | 96 | 5.20 | -71 | 8 | 07/02/2025 03:30 PM |
| 45166 | 15.1 | 3.88 | 0 | 105 | 43 | 95 | 5.10 | -74 | 8 | 07/02/2025 03:15 PM |
| 45165 | 15.1 | 3.88 | 0 | 104 | 43 | 96 | 5.20 | -73 | 8 | 07/02/2025 03:00 PM |
| 45164 | 15.0 | 4.09 | 0 | 103 | 43 | 96 | 5.10 | -70 | 8 | 07/02/2025 02:45 PM |